Showing default

QIANFAN-29, 61562

Orbit data source: Space-Track

QIANFAN-29, 61562 is a Chinese payload satellite in LEO that was launched on Tue, 15 Oct 2024 UTC via a CHANG ZHENG 6A launch vehicle from the Taiyaun Space Center, China (TSC). Payload-class satellites include a variety of spacecraft equipped with specific instruments for various scientific and technological missions. These include communications satellites like Starlink; space stations such as the ISS; scientific satellites like the Hubble; Earth observation satellites from companies like Planet Labs, Umbra, and HawkEye 360; GPS; miniature CubeSats for education and research; and military/defense satellites.

Loading next visibility...
Identifier
61562, 2024-185L
Orbit
LEO
Country
Flag of CNCN / PRC
Related business
Manufacturer
GESIH/SECM
Mission
Operational Commercial Communications
Bus & Motor
QIANFAN, Unknown motor
Mass
267 kg wet, ~267 kg dry
Launch date (UTC)
2024-10-15 (11 months ago)
Launch vehicle
CHANG ZHENG 6A
Launch site
Taiyaun Space Center, China (TSC)
Object type
Payload
Rocket body
Debris
Shape & HBR
Box + 1 Pan, 5.0 m
Radar Cross Section
13.200 m², Large (>1 m²)

Expand to show TLE details & history
Last TLE update: 17 hours ago

TLE from 17 hours ago
0 QIANFAN-29
1 61562U 24185L   25257.56604513  .00000154  00000-0  21993-3 0  9998
2 61562  88.9723  90.5336 0008837 317.8685  42.1786 13.50965173 55759
Epoch: 2025-09-14T13:35Z
TLE epoch observation values (Epoch: 2025-09-14T13:35:06.299Z)
Latitude
-0.00001°
Longitude
-107.02586°
Altitude
1,066.788 km
Speed
7.321 km/s
True Right ascension
06h 02m 08s
True Declination
0° 00' 00"
Sunlit
Object was in daylight at epoch
Visualization orbit readout
Latitude
Unknown
Longitude
Unknown
Altitude
Unknown
Speed
Unknown
Apparent Right ascension
Unknown
Apparent Declination
Unknown
Sunlit
N/A
Visualization observer readout
Local Sidereal Time
23:16:20
Azimuth
Unknown
Elevation
Unknown
Doppler factor
Unknown
Orbital elements
Apogee altitude
1,072.339 km
Perigee altitude
1,059.183 km
Semi-major axis
7,443.898 km
Eccentricity
0.00088
Inclination
88.9723°
RAAN
90.5336°
Arg. of periapsis
317.8685°
True anomaly
42.24665°
Mean anomaly
42.1786°
Eccentric anomaly
42.21262°
Mean motion
3.37942 °/min
Orbital period
106.53 mins
BSTAR
0.00021993
Loading maneuver chart data...
Computing Atmospheric mass density...
Loading historical data...
Loading historical data...
Loading historical data...
Loading historical data...
Loading historical data...
Loading historical data...
Loading historical data...

Documentation

Showing up to 5 results
|